Mosby, MO

4:18 AM CDT on August 17, 2017 (GMT -0500)
Clay County Regional

Weather History for KGPH - December, 2013

Change the Weather History Date:

Friday, December 6, 2013

  Actual Average (KMKC) Record (KMKC)
Temperature  
Mean Temperature 16 °F -  
Max Temperature 19 °F 44 °F 60 °F (2001)
Min Temperature 12 °F 29 °F 10 °F (2005)
Degree Days  
Heating Degree Days 50    
Moisture  
Dew Point 1 °F    
Average Humidity 52    
Maximum Humidity 67    
Minimum Humidity 39    
Precipitation  
Precipitation 0.00 in - - ()
Sea Level Pressure  
Sea Level Pressure 30.51 in    
Wind  
Wind Speed 11 mph (NNW)    
Max Wind Speed 17 mph    
Max Gust Speed 23 mph    
Visibility 10 miles    
Events      
Averages and records for this station are not official NWS values.
T = Trace of Precipitation, MM = Missing Value Source: NWS Daily Summary

Daily Weather History Graph

Daily Weather History Graph

Search for Another Location

Airport or City:

Trip Planner

Search our weather history database for the weather conditions in past years. The results will help you decide how hot, cold, wet, or windy it might be!

Date:

Astronomy

Dec. 06, 2013 Rise Set
Actual Time 7:22 AM CST 4:53 PM CST
Civil Twilight 6:53 AM CST 5:23 PM CST
Nautical Twilight 6:19 AM CST 5:57 PM CST
Astronomical Twilight 5:47 AM CST 6:29 PM CST
Moon 10:29 AM CST (12/6) 9:25 PM CST (12/6)
Length of Visible Light 10h 30m
Length of Day
9h 30m
Waxing Crescent, 19% of the Moon is Illuminated
Dec 6
Waxing Crescent
Dec 9
First Quarter
Dec 17
Full
Dec 25
Last Quarter
Jan 1
New

Hourly Weather History & Observations

Time (CST) Temp. Windchill Dew Point Humidity Pressure Visibility Wind Dir Wind Speed Gust Speed Precip Events Conditions
12:15 AM 19.4 °F 7.9 °F 5.0 °F 54% 30.39 in 10.0 mi NNW 10.4 mph - N/A   Overcast
12:35 AM 19.4 °F 7.2 °F 5.0 °F 54% 30.40 in 10.0 mi NNW 11.5 mph 19.6 mph N/A   Unknown
12:55 AM 19.4 °F 6.6 °F 5.0 °F 54% 30.40 in 10.0 mi NNW 12.7 mph - N/A   Unknown
1:15 AM 19.4 °F 7.2 °F 5.0 °F 54% 30.39 in 10.0 mi NNW 11.5 mph - N/A   Overcast
1:35 AM 19.4 °F 8.6 °F 5.0 °F 54% 30.39 in 10.0 mi NNW 9.2 mph - N/A   Overcast
1:55 AM 17.6 °F 5.0 °F 5.0 °F 58% 30.39 in 10.0 mi NNW 11.5 mph 19.6 mph N/A   Overcast
2:15 AM 17.6 °F 3.7 °F 5.0 °F 58% 30.39 in 10.0 mi NNW 13.8 mph 17.3 mph N/A   Overcast
2:35 AM 17.6 °F 5.7 °F 5.0 °F 58% 30.40 in 10.0 mi NNW 10.4 mph - N/A   Unknown
2:55 AM 17.6 °F 5.0 °F 5.0 °F 58% 30.40 in 10.0 mi North 11.5 mph - N/A   Unknown
5:55 AM 14.0 °F -0.8 °F 1.4 °F 57% 30.43 in 10.0 mi NNW 13.8 mph 23.0 mph N/A   Overcast
6:15 AM 14.0 °F -0.8 °F 3.2 °F 62% 30.45 in 10.0 mi NNW 13.8 mph - N/A   Overcast
6:35 AM 14.0 °F -0.8 °F 3.2 °F 62% 30.44 in 10.0 mi NNW 13.8 mph - N/A   Overcast
6:55 AM 14.0 °F -2.5 °F 3.2 °F 62% 30.42 in 10.0 mi North 17.3 mph 21.9 mph N/A   Overcast
7:15 AM 14.0 °F -1.4 °F 3.2 °F 62% 30.43 in 10.0 mi North 15.0 mph 18.4 mph N/A   Overcast
7:35 AM 14.0 °F 0.5 °F 1.4 °F 57% 30.45 in 10.0 mi NNW 11.5 mph 18.4 mph N/A   Overcast
7:55 AM 14.0 °F -2.0 °F 1.4 °F 57% 30.46 in 10.0 mi North 16.1 mph - N/A   Mostly Cloudy
8:15 AM 14.0 °F 1.2 °F 1.4 °F 57% 30.50 in 10.0 mi NNW 10.4 mph - N/A   Scattered Clouds
8:35 AM 14.0 °F 1.2 °F 1.4 °F 57% 30.48 in 10.0 mi NNW 10.4 mph - N/A   Scattered Clouds
8:55 AM 12.2 °F -3.1 °F 3.2 °F 67% 30.46 in 10.0 mi NNW 13.8 mph - N/A   Unknown
9:15 AM 14.0 °F -0.8 °F 1.4 °F 57% 30.48 in 10.0 mi NNW 13.8 mph - N/A   Clear
9:35 AM 14.0 °F -0.2 °F 1.4 °F 57% 30.50 in 10.0 mi North 12.7 mph - N/A   Scattered Clouds
9:55 AM 14.0 °F -0.8 °F 1.4 °F 57% 30.50 in 10.0 mi NNW 13.8 mph - N/A   Mostly Cloudy
10:15 AM 14.0 °F -2.0 °F -0.4 °F 53% 30.51 in 10.0 mi NNW 16.1 mph - N/A   Scattered Clouds
10:35 AM 14.0 °F -0.2 °F -0.4 °F 53% 30.50 in 10.0 mi North 12.7 mph - N/A   Clear
10:55 AM 15.8 °F 2.1 °F -0.4 °F 49% 30.50 in 10.0 mi NNW 12.7 mph - N/A   Scattered Clouds
11:15 AM 15.8 °F 2.7 °F -0.4 °F 49% 30.51 in 10.0 mi NNW 11.5 mph 18.4 mph N/A   Scattered Clouds
11:35 AM 15.8 °F 2.7 °F -0.4 °F 49% 30.51 in 10.0 mi NNW 11.5 mph 19.6 mph N/A   Unknown
11:55 AM 17.6 °F 2.7 °F -0.4 °F 45% 30.49 in 10.0 mi North 16.1 mph 21.9 mph N/A   Clear
12:15 PM 17.6 °F 5.0 °F -0.4 °F 45% 30.50 in 10.0 mi North 11.5 mph - N/A   Clear
12:35 PM 17.6 °F 3.7 °F -0.4 °F 45% 30.50 in 10.0 mi NNW 13.8 mph 18.4 mph N/A   Scattered Clouds
12:55 PM 17.6 °F 3.2 °F -0.4 °F 45% 30.50 in 10.0 mi North 15.0 mph - N/A   Overcast
1:15 PM 17.6 °F 6.4 °F -0.4 °F 45% 30.50 in 10.0 mi NNW 9.2 mph - N/A   Mostly Cloudy
1:35 PM 19.4 °F 6.0 °F -2.2 °F 39% 30.49 in 10.0 mi North 13.8 mph - N/A   Scattered Clouds
1:55 PM 19.4 °F 6.6 °F -0.4 °F 42% 30.49 in 10.0 mi NNW 12.7 mph 16.1 mph N/A   Scattered Clouds
2:15 PM 19.4 °F 7.9 °F -0.4 °F 42% 30.48 in 10.0 mi NNW 10.4 mph - N/A   Scattered Clouds
2:35 PM 19.4 °F 7.2 °F -2.2 °F 39% 30.48 in 10.0 mi North 11.5 mph 17.3 mph N/A   Unknown
2:55 PM 19.4 °F 7.9 °F -2.2 °F 39% 30.49 in 10.0 mi North 10.4 mph - N/A   Unknown
3:15 PM 19.4 °F 6.6 °F -2.2 °F 39% 30.49 in 10.0 mi NNW 12.7 mph 17.3 mph N/A   Mostly Cloudy
3:35 PM 19.4 °F 7.9 °F -2.2 °F 39% 30.49 in 10.0 mi North 10.4 mph - N/A   Mostly Cloudy
3:55 PM 19.4 °F 7.9 °F -2.2 °F 39% 30.50 in 10.0 mi NNW 10.4 mph 18.4 mph N/A   Mostly Cloudy
4:35 PM 19.4 °F 7.9 °F -2.2 °F 39% 30.52 in 10.0 mi NNW 10.4 mph - N/A   Overcast
4:55 PM 19.4 °F 7.2 °F -0.4 °F 42% 30.52 in 10.0 mi North 11.5 mph - N/A   Overcast
5:35 PM 17.6 °F 3.7 °F -2.2 °F 42% 30.54 in 10.0 mi North 13.8 mph - N/A   Overcast
6:15 PM 17.6 °F 6.4 °F -0.4 °F 45% 30.55 in 10.0 mi NNW 9.2 mph - N/A   Overcast
6:35 PM 17.6 °F 7.3 °F -0.4 °F 45% 30.57 in 10.0 mi NNW 8.1 mph - N/A   Overcast
6:55 PM 17.6 °F 5.7 °F -0.4 °F 45% 30.57 in 10.0 mi NNW 10.4 mph - N/A   Unknown
7:15 PM 17.6 °F 7.3 °F -0.4 °F 45% 30.59 in 10.0 mi NNW 8.1 mph - N/A   Overcast
7:35 PM 15.8 °F 7.2 °F 1.4 °F 53% 30.59 in 10.0 mi NNW 5.8 mph - N/A   Mostly Cloudy
7:55 PM 15.8 °F 4.2 °F 1.4 °F 53% 30.59 in 10.0 mi NNW 9.2 mph - N/A   Mostly Cloudy
8:15 PM 15.8 °F 6.1 °F 1.4 °F 53% 30.60 in 10.0 mi NNW 6.9 mph - N/A   Scattered Clouds
8:35 PM 15.8 °F 6.1 °F 1.4 °F 53% 30.61 in 10.0 mi NNW 6.9 mph - N/A   Mostly Cloudy
8:55 PM 14.0 °F 3.9 °F 1.4 °F 57% 30.61 in 10.0 mi NNW 6.9 mph - N/A   Scattered Clouds
9:15 PM 14.0 °F 6.5 °F 1.4 °F 57% 30.63 in 10.0 mi NW 4.6 mph - N/A   Clear
9:35 PM 14.0 °F 6.5 °F 1.4 °F 57% 30.63 in 10.0 mi NW 4.6 mph - N/A   Unknown
9:55 PM 14.0 °F 3.9 °F 1.4 °F 57% 30.64 in 10.0 mi NW 6.9 mph - N/A   Unknown
10:15 PM 14.0 °F 5.1 °F 1.4 °F 57% 30.64 in 10.0 mi NW 5.8 mph - N/A   Clear
10:35 PM 12.2 °F 0.7 °F 1.4 °F 62% 30.65 in 10.0 mi NNW 8.1 mph - N/A   Clear
10:55 PM 12.2 °F 4.3 °F 3.2 °F 67% 30.66 in 10.0 mi NNW 4.6 mph - N/A   Unknown
11:15 PM 12.2 °F 1.7 °F 3.2 °F 67% 30.66 in 10.0 mi NNW 6.9 mph - N/A   Clear
11:35 PM 12.2 °F -0.2 °F 3.2 °F 67% 30.66 in 10.0 mi NNW 9.2 mph - N/A   Clear
11:55 PM 12.2 °F -1.0 °F 3.2 °F 67% 30.66 in 10.0 mi NNW 10.4 mph - N/A   Clear